Wind_Speed
20 21 22 21 17 15 14 14 14 12 10 8 6 4 4 4 6 8 7 7 10 12 11 7 11 8 7 5 5 3 5 2 1 2 1 7 5 6 1 4 4 4 2 12 27
21 23 25 20 19 18 18 17 14 12 10 8 5 2 2 6 9 12 8 10 10 12 12 14 7 9 5 5 4 5 4 2 4 3 5 5 6 4 4 7 5 17 16 22 25
23 25 26 24 18 21 21 16 13 11 9 6 1 3 4 6 4 4 10 10 11 11 9 6 3 3 6 4 6 2 4 3 3 6 8 5 5 5 5 4 4 17 21 28 31
24 26 27 25 18 22 24 15 13 11 8 6 4 7 6 3 2 7 11 12 10 9 8 10 6 4 4 4 4 5 4 3 1 4 5 4 7 4 9 4 12 14 16 19 20
27 28 28 24 20 23 23 12 12 11 8 6 6 8 5 7 3 7 10 12 8 7 13 4 6 2 4 2 2 4 2 5 5 9 7 8 5 4 7 10 14 13 15 16 17
27 30 30 22 24 26 23 9 12 11 9 8 7 5 3 6 3 7 9 8 11 9 9 8 3 2 4 3 3 1 3 7 5 5 3 5 4 3 5 10 11 12 14 13 16
28 30 31 23 24 27 22 7 10 9 9 8 6 7 10 2 3 8 10 7 8 8 3 5 3 3 1 3 3 2 4 3 3 5 5 5 4 2 5 11 14 17 16 15 18
28 30 32 27 21 25 21 6 7 7 8 7 6 5 3 2 4 8 10 5 5 6 5 5 4 5 4 1 6 4 5 2 0 5 4 6 3 1 6 10 13 14 13 12 15
28 30 32 31 19 24 19 4 7 5 7 5 4 5 2 3 4 8 8 5 4 4 5 3 4 4 5 4 5 7 2 1 4 4 3 1 2 2 5 5 8 11 12 14 14
29 30 32 31 18 24 15 3 6 6 3 4 6 4 4 3 5 6 5 5 3 3 4 7 6 4 4 6 1 3 3 3 4 2 5 2 2 3 4 5 6 9 11 14 15
27 30 31 31 17 24 14 3 6 5 12 4 1 2 3 7 1 3 6 2 3 7 4 4 6 2 3 1 1 1 2 4 4 2 1 2 3 3 4 4 6 9 11 14 15
25 28 31 28 10 19 25 8 3 2 4 0 2 2 3 4 4 4 7 3 4 3 2 5 1 2 1 2 2 0 2 4 4 1 1 4 7 5 1 2 4 7 9 12 15
25 26 30 24 6 14 24 10 4 2 3 3 2 2 3 4 2 5 4 1 4 3 3 3 2 0 1 1 4 3 3 2 4 2 1 2 5 4 3 2 5 6 6 8 11
23 25 29 21 3 10 5 11 2 1 4 8 6 3 3 2 3 2 3 2 3 1 1 1 2 1 1 2 3 3 4 3 3 2 3 1 5 4 4 3 3 6 7 7 10
21 24 26 16 4 4 8 7 2 1 4 5 6 3 5 4 4 6 4 3 1 3 3 2 3 3 2 2 3 6 1 4 2 3 2 2 1 2 4 4 2 4 5 7 7
21 22 22 9 4 7 10 1 2 5 2 5 3 6 5 5 6 7 5 7 0 2 3 2 3 1 2 3 2 5 2 3 3 1 1 2 4 3 4 4 3 1 4 6 7
21 22 13 7 3 10 6 1 5 6 2 5 4 5 2 4 5 6 5 7 4 5 6 6 2 3 1 4 3 8 5 3 4 3 4 3 2 6 3 2 4 5 4 4 5
20 16 7 5 9 12 1 4 6 2 1 1 3 3 4 6 3 7 2 4 3 4 2 4 6 3 3 1 2 3 2 3 5 3 5 1 5 2 3 5 5 5 5 4 5
17 8 3 9 12 9 4 5 3 2 2 5 4 5 4 4 4 6 3 0 1 2 3 4 5 3 0 1 3 2 1 2 2 2 2 3 3 2 3 4 5 5 5 4 4
14 7 3 14 12 3 5 2 0 2 3 2 3 3 4 5 6 6 3 2 1 0 2 2 5 2 4 1 1 2 2 1 2 4 5 5 4 4 6 10 8 7 6 6 4
6 3 7 17 5 5 4 0 1 1 2 3 1 2 2 3 1 3 3 2 1 0 1 2 2 5 3 3 3 1 1 1 1 2 3 4 5 5 5 10 13 10 7 6 5
3 3 9 12 4 2 2 1 1 1 2 2 2 1 1 2 2 2 2 2 2 0 3 1 3 4 9 2 2 2 3 4 3 5 3 2 7 2 4 5 11 9 8 6 5
2 2 6 6 3 2 4 2 0 1 1 1 1 1 0 2 4 1 3 2 3 2 1 2 1 4 8 3 2 3 4 4 2 2 7 4 6 1 2 3 7 11 9 7 6
2 3 4 5 1 3 2 2 3 2 1 1 0 1 1 1 2 3 3 2 2 3 4 3 3 7 7 6 1 7 7 6 7 4 7 16 19 12 5 7 8 9 11 9 7
4 1 1 3 3 2 2 2 2 3 1 1 1 2 3 2 3 3 3 5 3 6 1 1 5 5 10 9 7 16 19 11 12 18 10 25 13 18 8 13 16 14 12 12 9
2 2 2 0 2 1 2 2 2 3 2 1 3 1 5 4 7 10 4 2 6 1 3 0 4 2 8 12 9 12 17 13 15 16 15 21 24 14 5 4 9 15 15 13 10
3 3 3 1 1 1 3 2 2 0 2 3 3 3 5 9 7 9 6 7 8 5 3 3 2 3 5 3 7 9 12 9 4 5 6 7 6 2 1 3 5 8 11 11 9
Wind_Direction
24 17 13 9 14 11 354 343 334 327 319 311 305 324 6 80 76 55 42 351 337 349 356 17 37 39 53 56 47 87 62 109 134 88 44 359 39 0 332 17 27 42 23 320 321
22 17 14 16 13 7 359 348 339 333 325 310 280 261 122 133 88 55 12 0 357 356 6 23 3 2 49 24 31 73 88 120 170 130 96 63 57 338 19 21 334 326 317 326 325
19 15 11 8 8 6 3 2 4 3 3 359 191 162 138 151 81 354 360 355 349 355 358 25 27 42 47 26 354 61 121 170 67 113 138 116 64 34 357 13 354 316 319 331 332
17 14 9 6 11 4 360 360 6 7 8 23 93 124 113 118 85 357 358 359 357 4 24 29 28 47 64 51 335 89 75 109 93 128 113 99 123 95 62 287 303 305 315 319 338
18 14 10 9 10 5 360 6 18 12 22 54 105 120 105 49 38 353 355 5 10 18 37 41 44 67 73 62 43 70 63 56 98 89 82 93 52 124 22 338 318 333 337 341 344
18 15 12 12 8 4 3 15 21 31 51 78 94 92 70 75 356 357 356 9 24 37 39 40 64 61 95 68 78 280 103 150 145 118 87 104 64 75 341 330 349 355 349 346 346
17 14 13 11 10 3 4 28 33 48 70 75 65 74 63 115 20 10 9 26 24 34 66 51 61 72 125 93 319 93 91 140 165 181 149 126 59 37 309 349 4 354 350 344 346
14 11 9 10 9 3 1 30 40 59 68 64 58 63 87 10 12 14 13 22 30 39 58 39 54 98 51 135 24 46 45 21 333 151 359 168 248 260 0 2 360 347 347 345 354
10 7 5 4 6 1 358 50 44 62 63 59 60 79 33 345 8 3 11 358 359 29 43 23 56 70 32 52 20 16 270 289 315 2 134 251 208 341 8 345 350 339 354 349 357
4 5 2 1 9 3 3 91 76 53 36 55 58 50 11 293 312 338 342 357 23 1 21 40 43 53 31 47 306 287 340 309 259 304 44 66 171 309 354 344 347 329 358 358 358
359 1 3 359 11 11 20 114 21 354 37 84 153 138 301 323 319 9 347 43 34 52 35 9 66 350 283 192 205 283 239 259 261 179 122 243 198 239 332 1 359 358 4 2 4
356 358 2 359 15 17 41 65 43 307 68 228 259 283 283 336 5 346 3 65 55 51 353 24 103 245 230 49 19 71 266 283 287 102 258 192 247 215 343 13 31 8 1 2 355
354 355 359 357 19 20 48 50 10 355 90 355 6 350 326 7 345 314 28 59 68 45 27 144 232 269 175 352 356 279 204 241 229 300 143 152 268 200 202 127 32 23 2 12 4
349 352 355 359 30 7 49 7 20 61 78 327 352 7 355 23 357 341 29 65 28 74 74 245 330 351 334 281 143 297 227 245 265 57 250 271 292 228 186 205 35 16 6 357 357
345 347 352 7 349 45 330 338 119 86 52 311 314 317 341 62 326 356 8 22 61 327 82 306 346 348 326 278 180 243 303 257 248 204 20 215 3 260 146 221 290 18 6 10 359
339 338 344 357 31 357 344 72 137 46 274 336 325 353 26 15 349 322 17 38 43 73 11 292 290 240 271 303 227 330 351 32 39 91 323 214 159 255 194 190 162 130 32 11 6
332 335 339 355 1 343 352 83 40 95 350 320 329 8 330 327 359 32 23 11 33 21 9 335 322 306 339 330 33 30 32 338 353 1 237 156 150 265 166 157 158 156 98 37 10
331 338 345 36 350 341 41 52 71 238 274 9 344 324 30 9 18 354 47 23 17 48 52 27 339 360 357 30 307 8 91 125 301 301 291 141 236 279 140 120 115 122 124 82 32
340 354 39 357 344 341 68 51 176 219 314 350 337 47 335 11 11 15 26 121 258 45 39 17 281 308 117 27 109 338 28 195 246 251 307 251 294 128 134 165 169 168 152 132 99
343 340 2 346 337 5 66 134 60 9 358 34 17 33 343 328 17 28 337 304 359 112 138 214 296 266 291 347 89 176 192 351 11 317 300 292 276 256 221 217 205 197 186 158 140
347 38 355 342 2 50 93 176 344 53 22 31 338 327 352 325 330 302 287 304 306 279 111 145 142 285 334 196 193 338 296 120 168 175 258 303 266 192 215 200 200 198 179 168 156
14 21 346 354 47 43 88 279 295 20 36 57 108 184 225 309 291 294 292 259 320 353 336 257 165 274 243 246 278 204 230 158 132 286 254 224 265 30 296 247 170 165 163 159 157
60 282 344 358 86 11 317 334 186 356 47 30 42 202 27 303 326 227 326 320 332 340 355 188 280 318 329 7 19 226 212 200 99 113 202 242 258 74 37 132 153 155 160 162 157
76 18 334 46 43 112 22 337 321 354 29 62 318 74 39 297 225 280 287 269 296 230 207 186 213 199 232 236 184 256 243 211 199 212 247 238 268 263 229 230 177 176 161 161 173
26 69 175 338 1 47 16 335 321 322 56 70 336 226 184 276 299 255 242 301 302 344 116 175 247 211 263 267 257 264 263 246 223 248 243 275 261 267 232 211 204 179 160 156 171
82 85 22 58 331 15 344 231 223 288 208 260 215 226 181 210 216 281 256 182 246 348 187 179 275 231 277 249 266 271 265 249 242 251 250 261 268 289 307 149 150 170 168 167 172
134 122 105 335 24 79 239 224 263 247 259 209 213 285 249 247 251 257 229 226 237 198 197 245 269 323 269 341 303 279 268 214 200 189 183 221 247 355 321 264 166 159 162 160 157
Height
840 837 833 829 826 823 820 817 815 813 812 812 811 810 810 810 810 810 810 812 808 805 802 798 796 795 796 801 804 809 834 843 833 834 835 838 835 838 839 837 837 840 841 841 835
841 837 833 829 826 823 819 815 813 811 809 809 808 809 809 809 810 811 814 811 808 806 803 800 801 799 806 808 811 820 839 831 828 828 842 845 844 844 843 844 842 838 837 838 833
841 837 833 829 826 821 818 814 811 810 808 807 806 807 808 809 812 816 814 812 809 807 805 804 803 804 811 812 819 818 833 826 827 831 836 841 849 848 849 848 850 847 837 831 825
842 838 834 829 825 821 817 813 811 809 808 807 807 808 809 810 825 818 815 813 810 808 806 806 806 811 820 821 821 827 824 824 826 829 834 840 847 852 852 857 850 846 841 836 829
842 838 834 829 825 821 817 813 811 809 808 808 808 808 810 816 822 819 816 814 811 809 809 810 814 817 822 822 822 824 826 828 830 833 839 841 849 847 852 852 848 845 840 833 829
843 839 834 829 825 821 816 814 812 811 810 810 810 811 811 825 821 820 817 815 812 811 813 813 817 817 821 824 826 825 827 831 831 834 837 843 850 848 852 849 845 843 841 837 832
844 839 834 829 825 820 816 814 814 812 812 812 812 813 815 825 822 820 817 816 815 814 814 815 816 816 821 824 826 826 830 831 832 835 842 843 850 855 853 846 842 842 839 836 833
845 840 835 830 826 821 817 815 815 814 813 813 813 814 824 822 821 820 819 817 816 816 816 817 816 819 823 826 831 834 839 842 832 834 839 839 843 851 851 848 847 845 841 838 833
845 841 836 831 827 822 817 816 816 815 814 813 814 815 826 823 821 821 820 819 818 818 818 818 819 828 830 838 847 851 848 842 837 837 836 841 844 851 852 852 851 846 841 836 833
846 842 837 832 827 822 817 816 816 815 815 815 816 821 823 826 822 821 820 819 819 819 821 823 832 837 844 848 852 845 846 844 846 837 842 847 850 852 853 854 854 850 842 838 834
847 842 838 832 828 824 816 817 820 821 819 828 828 828 826 824 822 821 820 819 820 824 833 834 843 844 838 839 841 844 847 847 840 836 839 845 851 851 853 855 856 852 844 841 837
847 843 838 833 830 827 821 825 835 836 832 828 828 827 826 826 825 822 821 823 825 834 831 840 840 833 833 834 837 840 843 844 838 839 839 850 847 850 851 854 854 853 848 843 839
847 843 839 834 831 829 829 835 836 836 835 830 828 828 828 828 828 826 823 826 829 832 836 841 833 831 833 836 839 839 840 837 838 836 846 850 842 849 849 852 853 852 852 848 844
847 843 838 834 834 832 834 836 835 837 848 842 833 830 828 828 830 826 826 828 830 834 835 836 832 833 835 835 839 840 833 832 834 839 847 843 835 841 846 848 855 857 856 853 847
848 844 840 836 836 836 839 835 835 837 873 840 836 829 828 832 833 829 828 826 834 835 838 835 836 835 835 834 836 838 833 836 834 840 841 842 850 824 845 846 850 856 856 854 850
848 844 841 838 838 839 836 835 836 851 876 845 837 841 835 835 835 832 832 831 832 835 838 838 837 837 835 834 835 836 835 839 847 846 845 834 844 822 841 838 849 855 855 857 852
847 844 840 839 839 837 835 837 850 864 846 850 849 846 847 844 839 842 843 849 851 851 855 847 838 837 835 837 836 843 848 856 852 855 840 835 845 821 840 843 845 853 856 857 856
844 842 840 839 838 836 835 840 854 850 849 848 849 848 847 850 846 848 846 855 849 853 864 862 855 839 837 839 842 845 850 867 849 851 846 832 824 813 838 845 850 853 856 857 857
843 841 840 840 838 836 838 861 856 854 851 853 850 853 853 850 852 850 853 855 852 851 854 861 852 841 838 838 841 842 849 848 852 849 859 833 818 841 846 848 850 853 855 858 858
843 842 841 840 837 836 848 858 856 854 853 853 856 855 857 858 857 860 855 850 849 849 851 852 861 842 840 839 841 840 844 849 857 844 845 834 824 818 840 841 846 850 852 855 858
844 845 843 840 837 842 860 860 855 854 854 856 858 858 860 860 858 859 853 850 849 849 850 852 860 848 844 841 839 845 848 848 853 854 849 854 821 817 820 824 835 843 849 853 857
847 851 843 839 849 864 861 855 854 853 853 854 856 858 858 858 859 857 856 852 851 850 852 854 868 866 846 838 839 838 839 845 854 858 858 857 834 823 824 818 822 838 846 852 855
855 855 844 841 859 864 859 855 854 854 854 855 857 858 859 860 862 859 857 852 852 851 852 854 865 871 846 841 839 839 837 837 844 850 857 848 826 824 825 825 828 836 844 850 853
856 857 853 852 864 860 860 858 857 856 856 856 858 858 859 860 858 859 857 851 852 851 850 852 863 856 851 836 840 843 838 837 838 856 837 822 807 809 822 826 828 834 837 845 851
859 866 868 865 863 863 862 862 860 857 857 857 858 858 857 860 861 860 857 856 851 853 854 858 863 865 849 848 846 836 830 834 840 825 839 802 818 794 803 811 815 820 833 840 847
862 864 870 871 870 864 864 862 861 858 858 858 859 856 857 860 859 854 855 857 856 855 855 861 858 858 853 842 842 836 823 826 825 822 821 814 809 800 804 806 816 818 827 834 843
860 862 863 869 872 870 867 861 861 860 855 854 857 858 858 855 852 849 852 852 847 850 854 857 856 851 845 849 846 831 808 811 812 814 812 817 804 813 812 817 820 826 828 833 838